Wind_Speed
17 18 17 18 19 19 18 18 18 18 18 17 18 18 18 18 18 18 17 18 17 17 17 17 18 18 18 18 18 19 19 19 19 19 19 20 20 20 21 21 21 22 22
17 18 19 19 19 19 19 18 18 17 17 17 18 18 17 17 17 18 18 18 18 18 17 17 18 18 18 18 18 18 18 19 19 19 19 19 19 19 20 21 21 22 22
18 19 20 20 20 19 18 18 17 17 17 18 18 17 17 17 17 17 17 16 17 17 17 18 18 18 18 19 19 19 19 18 18 19 20 20 19 19 20 20 21 22 22
18 19 19 19 19 18 17 17 17 17 17 17 17 17 16 17 17 17 16 16 17 17 18 18 19 19 18 18 18 18 18 19 19 19 20 20 20 20 20 20 21 22 22
19 19 18 19 19 18 17 17 16 16 16 16 16 16 16 17 17 18 17 17 17 17 17 18 18 18 18 18 19 19 19 19 19 19 19 20 20 21 21 21 21 22 23
18 17 17 18 17 17 16 16 15 16 15 15 16 16 16 16 17 18 17 18 18 18 18 19 18 18 19 19 19 18 19 19 19 19 20 20 20 21 21 22 22 22 23
17 17 18 18 16 15 15 15 15 15 15 15 15 15 16 17 17 17 18 19 19 19 19 19 19 19 19 19 19 18 19 19 20 20 20 20 21 21 22 22 22 23 23
16 17 17 17 16 15 15 15 15 15 15 15 15 16 17 17 17 18 19 19 20 19 20 20 19 19 20 19 19 19 19 20 21 21 21 21 21 22 22 22 22 23 23
17 18 17 16 15 15 14 15 15 15 14 14 15 16 17 17 18 19 19 20 20 19 20 20 19 20 20 20 19 20 21 21 21 21 21 21 22 21 21 22 22 22 22
18 17 16 15 15 15 15 15 16 16 15 15 15 16 17 17 18 19 19 20 19 20 20 19 19 20 21 20 20 20 21 21 21 21 20 20 20 20 20 20 20 20 21
17 16 16 16 16 16 15 16 16 16 16 16 16 17 17 17 18 19 19 19 19 20 19 19 20 20 20 20 20 20 20 20 20 20 19 19 19 19 19 19 19 19 20
18 17 16 16 16 15 16 17 16 17 17 17 17 18 17 17 17 18 19 19 19 19 19 20 20 20 20 20 20 19 19 19 19 18 18 18 18 19 19 18 18 18 19
18 17 17 17 17 17 17 17 17 17 17 17 17 18 18 18 18 18 19 19 19 19 19 20 20 19 19 19 20 19 19 18 18 18 18 17 18 18 18 17 17 18 18
19 18 17 18 18 18 17 17 17 18 18 18 19 19 19 18 19 19 19 19 20 20 20 19 19 19 19 19 19 18 18 17 17 17 17 17 17 17 17 17 17 17 17
21 19 18 18 18 18 18 18 18 19 19 19 19 18 19 19 19 19 20 20 21 20 20 19 19 19 19 18 18 18 17 17 16 16 16 16 16 17 17 17 17 17 17
22 21 20 20 20 19 19 20 20 20 20 20 20 19 19 19 19 19 20 21 20 20 19 19 18 18 18 17 17 17 17 15 15 16 16 16 17 16 16 16 16 16 17
22 22 22 22 21 21 20 21 20 20 20 20 20 19 20 19 19 19 20 20 20 19 19 19 18 18 17 16 16 16 15 14 14 14 15 15 15 14 15 15 16 16 17
24 23 23 23 23 23 22 21 21 20 20 21 20 20 20 20 19 19 20 20 20 20 20 19 18 18 17 16 16 15 13 13 13 13 14 13 13 13 14 15 16 16 16
24 24 24 24 23 23 22 22 21 21 21 22 21 21 21 20 20 20 20 20 20 20 19 19 18 18 17 16 15 15 13 12 13 13 13 13 12 12 13 13 14 14 15
24 24 24 23 23 22 22 22 22 22 22 22 21 21 21 22 21 21 21 20 20 19 19 19 18 17 16 16 15 14 14 13 13 13 13 13 13 13 13 13 13 13 13
25 25 25 24 24 23 23 23 22 22 22 22 22 21 21 21 21 21 21 21 20 20 19 19 18 17 16 16 15 14 13 13 13 13 13 13 13 12 12 12 12 12 12
26 25 25 25 24 23 23 23 23 23 23 22 21 21 21 21 21 21 21 22 21 21 21 20 19 18 17 16 15 14 13 13 13 13 12 12 12 12 12 12 12 11 11
26 25 25 25 24 23 23 24 24 24 23 23 22 22 21 22 22 22 22 22 21 21 22 21 20 19 17 17 16 15 15 14 14 14 13 13 12 12 12 12 12 11 11
26 25 25 24 24 23 24 24 25 25 25 24 23 23 23 22 23 23 23 22 23 22 21 19 19 18 18 17 17 17 16 15 15 14 14 14 13 12 12 12 12 11 11
25 25 25 25 25 25 25 25 25 26 26 25 24 24 23 23 23 23 23 23 22 21 21 19 19 19 19 18 17 16 16 16 16 16 15 15 14 14 13 13 12 12 12
25 25 25 25 25 24 24 25 25 25 25 25 25 24 23 23 23 22 22 22 22 21 20 20 19 19 19 19 18 17 16 16 16 16 15 15 15 14 14 14 13 12 12
Wind_Direction
285 286 289 293 296 297 298 299 300 302 303 305 307 306 307 307 307 306 300 300 300 299 298 294 293 292 293 290 286 286 284 284 281 279 279 277 275 273 272 271 272 271 271
283 288 291 294 295 296 295 297 299 299 302 303 304 305 307 309 308 306 301 301 300 298 296 295 294 294 293 292 289 288 286 287 283 281 279 277 274 273 273 272 273 272 270
285 289 292 292 294 294 293 295 299 299 300 301 302 304 305 306 308 305 301 299 298 297 296 297 298 298 296 294 292 292 289 287 285 283 280 277 277 273 273 274 273 272 271
284 286 289 292 294 293 293 293 297 296 298 300 301 301 302 304 305 306 305 303 301 301 299 297 297 298 298 298 296 295 290 288 287 284 281 279 280 277 276 275 273 272 271
284 285 287 290 291 292 293 293 296 297 297 300 301 302 304 306 308 309 309 307 306 304 304 302 301 300 299 298 298 295 291 290 289 288 285 282 280 280 279 278 276 274 273
283 284 288 290 288 291 293 293 294 295 297 300 302 302 303 305 308 308 308 308 306 304 304 304 304 303 302 300 298 296 294 292 291 290 289 286 283 281 281 279 277 275 274
280 284 289 290 290 291 294 298 299 299 297 298 300 301 302 305 308 307 306 307 306 305 303 302 302 303 302 300 297 296 296 294 293 292 290 288 285 283 282 281 278 275 274
284 284 288 290 290 291 294 298 300 299 297 298 299 300 302 304 306 307 306 306 306 304 304 301 301 301 301 299 295 294 295 295 294 292 290 287 286 285 283 283 281 278 275
285 286 286 286 289 292 295 299 299 300 299 298 301 302 305 307 307 307 307 306 304 302 303 302 301 302 302 300 298 296 295 294 293 292 289 287 286 285 284 284 283 281 279
282 285 284 286 287 289 292 295 298 300 301 299 301 305 310 308 309 310 308 308 305 302 303 302 301 301 302 301 299 297 295 295 293 292 289 288 288 288 289 288 286 285 282
284 286 285 283 286 288 291 295 299 300 301 301 304 306 307 308 309 311 311 310 308 305 304 302 301 301 301 301 299 298 297 295 293 291 290 288 288 289 291 292 291 287 285
281 284 282 283 284 285 289 292 294 299 301 301 302 304 305 306 310 311 312 311 311 309 306 305 304 302 303 303 302 300 298 295 291 290 290 290 288 289 290 292 293 290 288
278 278 279 282 284 285 288 289 292 295 299 300 301 302 303 304 307 310 313 313 313 312 311 311 309 306 306 305 304 303 300 296 290 289 291 291 290 289 289 290 291 291 293
273 273 277 280 281 283 285 288 292 294 297 299 300 300 301 303 304 306 310 313 315 317 316 312 312 312 310 306 306 305 302 298 294 292 292 294 292 289 289 290 291 291 294
270 273 277 279 279 280 284 288 290 292 294 297 299 299 299 299 302 304 308 311 315 317 318 314 312 311 312 310 309 309 304 298 296 294 292 294 294 290 288 290 291 291 295
268 273 276 277 281 282 283 286 288 291 294 297 296 295 296 298 301 304 306 309 312 315 318 317 314 312 313 315 315 311 309 303 300 298 296 295 295 292 288 289 291 291 292
270 272 273 275 278 282 283 284 285 288 291 295 295 293 293 294 298 302 305 307 310 312 313 314 315 315 316 317 320 318 316 313 308 303 301 302 302 297 294 293 293 293 292
269 271 272 273 274 278 280 281 283 286 289 293 293 292 289 291 294 299 302 303 306 310 311 310 310 313 317 316 317 320 319 321 317 313 310 308 307 304 302 299 296 293 292
269 270 271 271 272 275 278 280 281 284 287 290 290 290 291 292 294 297 299 300 302 306 309 308 307 309 314 317 316 317 317 320 318 314 310 308 307 306 308 307 301 295 293
269 269 270 271 272 275 277 278 279 281 284 287 289 291 291 291 294 296 295 297 300 302 305 307 306 305 307 309 311 313 313 315 316 315 312 309 307 309 309 312 309 305 301
268 269 269 269 271 272 274 276 277 278 281 284 286 288 290 291 291 293 293 298 301 302 302 304 304 303 302 301 303 305 307 311 313 313 311 309 308 309 313 317 319 317 311
268 268 268 269 268 270 271 273 275 277 279 282 284 285 286 287 289 290 292 296 298 300 300 300 301 301 299 299 299 299 301 305 307 309 308 306 307 313 319 324 324 321 316
267 267 267 268 268 269 271 273 273 275 279 281 282 283 284 286 287 289 291 293 294 296 298 296 296 298 297 297 296 296 296 298 302 306 305 302 303 310 317 320 318 317 318
264 264 264 265 266 270 273 275 274 275 277 279 280 281 282 283 285 287 289 291 294 295 295 293 293 293 294 295 293 291 291 295 295 296 299 301 303 305 309 312 314 314 315
264 265 265 266 268 271 273 276 277 278 279 279 279 280 281 282 284 286 287 289 291 294 295 294 292 290 289 290 290 289 288 289 291 293 294 296 301 303 303 303 306 310 310
263 264 264 266 268 270 273 276 279 280 281 281 280 280 281 283 285 286 287 287 287 289 292 291 289 287 286 286 286 286 288 286 287 289 289 291 293 297 299 297 298 302 305
Height
5851 5851 5851 5850 5849 5848 5847 5846 5845 5844 5842 5841 5839 5838 5837 5835 5833 5832 5830 5829 5827 5826 5824 5823 5821 5820 5819 5818 5817 5817 5816 5816 5815 5815 5815 5816 5816 5816 5816 5816 5817 5818 5818
5848 5847 5847 5847 5846 5845 5844 5843 5842 5841 5839 5838 5836 5835 5834 5832 5830 5828 5827 5825 5823 5822 5821 5819 5818 5816 5815 5814 5813 5812 5811 5811 5810 5810 5810 5810 5811 5810 5810 5811 5811 5812 5812
5845 5844 5843 5843 5842 5841 5840 5839 5839 5837 5836 5834 5833 5832 5830 5829 5827 5825 5824 5822 5820 5818 5817 5816 5814 5813 5811 5810 5809 5808 5807 5806 5806 5805 5805 5805 5805 5805 5806 5805 5806 5806 5806
5842 5841 5840 5839 5837 5836 5836 5836 5835 5833 5832 5831 5829 5828 5827 5826 5824 5822 5820 5819 5817 5815 5813 5812 5810 5809 5807 5805 5804 5803 5802 5801 5801 5800 5799 5799 5799 5799 5800 5800 5800 5800 5800
5837 5837 5837 5836 5834 5833 5832 5832 5831 5829 5828 5827 5826 5825 5824 5823 5821 5819 5818 5816 5814 5812 5810 5808 5806 5804 5803 5801 5799 5798 5797 5796 5796 5795 5794 5794 5793 5793 5793 5794 5794 5794 5794
5834 5833 5833 5832 5832 5831 5830 5829 5828 5826 5825 5824 5823 5822 5821 5819 5817 5815 5814 5812 5810 5808 5806 5804 5802 5800 5798 5796 5794 5793 5792 5791 5790 5790 5789 5788 5788 5787 5787 5787 5787 5787 5788
5831 5831 5830 5829 5829 5828 5827 5826 5825 5824 5823 5822 5820 5819 5817 5815 5814 5812 5810 5808 5806 5804 5802 5800 5797 5796 5793 5792 5790 5789 5788 5787 5785 5784 5783 5782 5782 5781 5781 5781 5781 5781 5781
5828 5828 5827 5826 5825 5825 5824 5823 5822 5821 5820 5818 5817 5816 5814 5812 5810 5808 5806 5804 5802 5800 5797 5795 5793 5791 5789 5787 5785 5784 5783 5782 5780 5779 5778 5777 5776 5775 5775 5774 5774 5774 5774
5825 5824 5823 5822 5822 5822 5821 5820 5819 5817 5816 5815 5814 5812 5810 5808 5806 5804 5802 5799 5797 5795 5793 5790 5788 5786 5784 5782 5780 5779 5778 5776 5775 5774 5772 5771 5770 5769 5768 5767 5767 5767 5767
5821 5820 5819 5819 5819 5818 5818 5817 5815 5814 5813 5812 5810 5809 5806 5804 5802 5800 5797 5795 5792 5790 5788 5785 5783 5781 5779 5777 5775 5774 5772 5771 5770 5768 5767 5765 5764 5763 5762 5761 5760 5760 5760
5817 5816 5816 5815 5815 5815 5814 5813 5812 5811 5809 5808 5806 5805 5803 5800 5798 5796 5793 5790 5788 5785 5783 5781 5778 5776 5774 5772 5770 5768 5766 5765 5764 5762 5761 5760 5759 5758 5757 5756 5755 5754 5753
5813 5813 5813 5812 5812 5811 5811 5810 5809 5807 5806 5804 5803 5801 5798 5796 5794 5792 5789 5786 5784 5781 5779 5776 5773 5771 5769 5767 5765 5763 5761 5759 5758 5757 5756 5755 5754 5753 5752 5751 5750 5749 5748
5809 5809 5809 5808 5808 5808 5807 5806 5805 5803 5802 5800 5798 5796 5794 5792 5790 5788 5785 5783 5780 5777 5774 5772 5769 5766 5764 5761 5759 5757 5755 5753 5752 5751 5751 5750 5749 5749 5748 5747 5745 5744 5743
5805 5805 5804 5804 5804 5804 5803 5802 5801 5799 5798 5796 5794 5792 5790 5789 5787 5784 5782 5779 5777 5774 5770 5768 5765 5762 5759 5756 5754 5751 5749 5748 5747 5746 5746 5745 5745 5744 5743 5742 5741 5740 5738
5800 5800 5799 5800 5800 5799 5799 5798 5796 5795 5793 5791 5790 5788 5786 5785 5783 5780 5778 5776 5773 5770 5766 5763 5761 5758 5755 5752 5749 5747 5744 5743 5742 5741 5741 5741 5740 5739 5738 5737 5736 5735 5734
5794 5795 5795 5795 5795 5795 5794 5793 5792 5790 5789 5787 5785 5784 5782 5781 5778 5776 5774 5772 5769 5766 5763 5760 5756 5753 5750 5748 5745 5742 5740 5739 5738 5737 5737 5737 5736 5735 5734 5733 5732 5731 5730
5789 5790 5790 5790 5790 5790 5789 5788 5787 5786 5784 5782 5781 5779 5778 5776 5774 5772 5770 5768 5766 5763 5759 5756 5753 5749 5747 5744 5742 5739 5737 5735 5734 5734 5734 5733 5731 5730 5730 5729 5728 5726 5725
5784 5784 5784 5784 5784 5784 5783 5783 5781 5780 5779 5778 5776 5774 5773 5772 5770 5768 5766 5764 5761 5758 5755 5752 5749 5747 5744 5742 5739 5737 5735 5734 5732 5731 5731 5730 5728 5727 5726 5725 5723 5722 5720
5777 5778 5778 5778 5778 5778 5777 5777 5776 5775 5774 5773 5771 5769 5768 5766 5765 5763 5761 5759 5757 5754 5751 5748 5746 5743 5741 5739 5737 5735 5733 5732 5731 5729 5728 5727 5726 5724 5722 5721 5719 5718 5716
5770 5771 5772 5771 5771 5771 5771 5771 5770 5769 5768 5767 5765 5764 5763 5761 5759 5758 5756 5754 5752 5749 5747 5744 5742 5740 5738 5736 5734 5733 5731 5730 5729 5727 5726 5724 5723 5721 5719 5717 5716 5714 5712
5764 5764 5765 5765 5765 5765 5765 5764 5764 5763 5762 5761 5760 5759 5757 5756 5754 5753 5751 5749 5747 5745 5742 5740 5738 5736 5734 5733 5731 5730 5728 5727 5726 5725 5723 5722 5720 5718 5717 5715 5713 5711 5709
5757 5757 5758 5758 5758 5758 5758 5758 5757 5757 5756 5755 5754 5753 5751 5750 5749 5747 5746 5744 5742 5740 5738 5735 5734 5732 5730 5729 5728 5727 5725 5724 5723 5722 5721 5719 5718 5716 5715 5713 5711 5709 5707
5750 5750 5751 5751 5751 5751 5751 5751 5751 5750 5750 5749 5748 5747 5745 5744 5743 5742 5740 5739 5737 5735 5732 5731 5729 5728 5726 5725 5724 5723 5722 5721 5720 5719 5718 5717 5715 5714 5712 5711 5708 5706 5704
5743 5743 5743 5744 5744 5744 5744 5744 5744 5744 5743 5742 5741 5740 5739 5738 5737 5736 5734 5733 5731 5729 5727 5725 5724 5723 5722 5721 5720 5719 5719 5718 5717 5716 5715 5714 5712 5711 5709 5708 5706 5704 5702
5735 5736 5736 5736 5737 5737 5736 5736 5736 5736 5735 5734 5734 5733 5732 5731 5730 5729 5728 5726 5725 5723 5721 5720 5718 5718 5717 5716 5716 5715 5714 5713 5712 5711 5710 5710 5709 5708 5706 5705 5704 5702 5700
5728 5728 5729 5729 5729 5730 5730 5729 5729 5728 5728 5727 5727 5726 5725 5724 5723 5723 5722 5720 5719 5717 5716 5714 5713 5712 5712 5711 5710 5710 5709 5709 5708 5707 5706 5706 5705 5704 5703 5702 5700 5699 5697